Dewpoint
52 52 52 53 53 52 52 52 52 53 54 53 53 53 54 54 54 45 43 43 46 55 52 33 20 14 24 24 23 23 21 21 23 26 26 26 25 25 23 23 26 29 31 36 35
52 52 52 52 52 52 51 51 51 52 52 53 53 53 53 53 49 44 46 58 58 57 29 23 13 11 21 18 19 18 19 20 22 23 22 21 20 22 27 28 29 32 33 33 34
51 51 51 51 51 51 51 51 51 52 52 53 53 53 53 52 43 34 61 57 58 55 27 28 34 24 13 13 15 17 16 20 21 20 20 19 19 20 24 28 30 31 33 35 34
51 51 51 51 51 50 51 51 52 52 52 53 53 53 53 49 33 37 61 60 59 41 34 37 33 19 15 12 12 13 17 18 20 21 21 20 20 20 21 34 34 37 37 38 32
51 50 51 50 51 51 51 51 52 52 52 52 53 53 50 43 37 47 60 59 43 36 37 37 26 21 14 12 12 13 14 14 18 20 20 21 21 21 21 37 37 34 37 38 33
51 50 50 51 51 51 51 51 51 51 51 52 53 52 48 34 35 43 47 40 34 33 32 25 19 19 18 17 16 14 12 12 11 13 17 19 19 20 22 28 29 32 32 33 30
51 50 50 51 51 51 51 51 51 52 52 52 52 49 41 37 34 38 35 31 30 28 25 21 20 19 20 18 18 15 14 13 13 15 16 17 17 19 23 24 23 23 24 30 30
50 50 50 51 51 51 51 52 53 53 52 53 52 48 40 35 35 32 30 29 30 27 24 22 21 19 18 17 16 14 15 13 12 13 14 17 13 17 21 21 23 23 22 22 28
51 50 50 51 51 51 52 53 52 54 55 53 49 45 36 37 22 23 25 29 27 25 23 20 21 21 18 16 14 15 12 12 13 14 12 13 13 17 21 18 17 20 24 22 24
51 51 50 50 51 52 53 53 52 53 51 48 43 41 42 34 21 19 24 26 26 21 20 20 19 17 16 14 12 13 11 11 12 12 10 9 9 13 18 16 16 21 21 28 30
50 51 51 52 52 52 51 47 47 47 46 40 40 37 34 24 21 22 26 25 25 22 17 19 16 17 16 16 15 13 12 11 13 15 14 12 11 16 18 21 18 19 20 24 25
50 50 51 52 53 53 50 44 34 31 30 37 40 38 35 25 24 25 28 22 22 19 19 17 16 17 18 17 16 15 15 16 17 16 13 16 18 18 18 20 21 23 26 24 27
50 51 51 52 52 50 44 44 37 33 31 30 29 30 26 22 23 23 22 21 20 17 17 17 16 17 15 14 14 12 15 16 14 14 13 15 17 21 20 19 18 19 22 28 28
50 50 50 50 47 43 40 39 32 39 29 30 24 20 20 22 23 23 23 21 19 16 16 15 15 14 14 13 14 11 15 13 13 15 14 18 13 16 19 19 19 18 17 21 28
50 50 50 49 46 41 39 35 39 41 30 26 22 21 20 21 22 23 23 21 19 17 16 15 17 16 15 14 14 12 16 14 18 16 15 13 14 13 17 14 16 20 19 20 21
49 49 49 46 48 43 43 38 39 35 32 23 18 17 17 19 19 20 20 21 20 19 18 18 19 18 18 17 17 17 19 19 19 16 14 14 15 13 14 14 15 19 21 23 22
48 47 46 43 40 38 39 38 32 31 33 22 18 19 18 17 17 19 19 19 18 18 19 19 20 23 30 27 19 18 17 15 16 15 13 15 17 15 19 19 17 18 22 21 23
47 47 48 42 40 40 41 36 29 28 27 28 22 19 14 15 16 17 20 19 20 24 30 30 28 31 32 35 36 35 30 20 17 20 19 25 26 27 27 24 24 25 25 26 25
47 45 46 46 45 45 38 32 30 30 28 24 23 21 19 19 21 21 21 23 25 30 29 30 34 35 36 36 34 32 30 30 23 19 24 24 24 25 24 25 23 23 23 24 26
42 42 46 47 48 43 36 33 31 30 26 21 21 22 20 21 21 22 22 28 30 32 33 33 28 26 24 26 29 29 32 28 32 24 20 21 21 17 30 28 24 26 27 25 26
43 43 46 45 46 40 32 30 30 27 19 24 21 19 20 22 22 23 23 23 30 30 32 34 33 30 30 25 24 26 30 32 32 32 24 23 22 31 32 33 30 29 30 26 27
37 36 46 44 34 33 32 27 30 21 22 21 26 25 25 26 25 23 23 29 31 32 30 35 34 31 30 29 30 29 34 35 32 29 29 24 21 29 32 35 36 34 34 34 32
34 38 45 41 32 28 28 25 24 21 21 20 25 25 27 25 25 26 26 24 33 35 37 39 33 25 22 21 31 29 30 34 36 36 31 28 23 34 37 38 38 36 35 34 34
36 37 36 37 35 32 30 28 24 24 21 23 26 24 24 24 23 23 23 24 31 34 42 36 28 26 22 21 32 30 30 30 33 31 29 31 31 32 32 34 39 39 37 35 36
41 36 37 31 30 32 33 30 25 23 21 22 23 19 21 23 23 23 24 23 24 37 34 33 28 29 28 28 25 22 26 28 28 29 28 25 25 26 33 34 34 37 39 40 39
38 34 31 28 32 31 33 31 24 19 21 20 23 22 23 24 23 23 25 26 26 28 30 35 28 33 29 26 24 23 24 24 25 27 26 28 26 36 35 35 35 36 36 37 39
38 38 33 34 31 33 31 29 25 25 23 19 21 24 23 26 28 28 28 29 30 28 27 27 28 27 24 26 25 21 29 32 32 31 33 31 34 37 37 36 35 34 34 33 35
Lifted_Index
11 10 10 9 8 7 7 8 8 9 9 9 9 9 10 10 11 11 10 9 8 8 8 9 10 9 8 8 7 7 7 7 6 6 4 3 2 1 1 1 1 1 1 2 3
11 11 10 9 9 8 8 8 9 9 9 9 9 9 10 10 10 9 9 8 7 8 9 9 9 9 8 8 7 7 7 7 6 6 5 3 2 2 1 1 1 1 1 1 2
12 11 11 10 10 9 9 8 8 9 9 9 9 9 10 9 8 7 6 6 7 8 8 8 7 8 8 7 7 7 7 7 7 6 5 4 3 2 2 1 1 1 0 1 1
12 12 12 11 11 10 9 9 9 9 9 9 9 9 9 9 7 5 5 5 6 7 7 7 6 7 7 7 7 7 7 7 6 6 5 4 4 3 2 1 1 1 0 1 1
13 13 12 11 11 10 10 9 9 10 9 9 9 9 9 7 6 5 5 5 7 7 6 6 6 6 6 6 7 6 6 6 6 5 5 4 4 3 3 1 1 1 1 1 1
13 12 12 11 10 10 10 10 10 10 10 9 9 9 8 7 6 5 5 6 7 7 6 6 6 6 6 6 6 6 6 6 5 5 5 4 4 4 4 2 1 1 2 2 2
12 12 11 11 10 10 11 11 11 11 10 10 9 8 8 7 6 5 6 6 6 6 6 6 6 6 6 6 5 5 5 5 5 5 5 4 4 4 4 3 3 2 3 3 3
12 12 11 11 11 11 11 11 10 10 10 9 9 8 7 6 6 6 6 5 6 6 6 7 7 6 6 5 5 5 4 4 4 4 4 4 4 4 4 3 3 3 3 4 4
12 12 11 11 11 11 11 10 9 9 9 9 8 6 5 5 6 6 6 5 5 6 6 7 7 6 6 5 4 4 3 3 3 3 3 3 4 4 4 3 4 4 4 4 4
12 12 12 12 11 10 9 8 7 7 7 7 6 5 5 5 6 7 6 6 6 6 6 6 6 6 6 5 4 3 3 3 2 2 2 2 2 3 3 3 4 4 4 4 4
12 12 12 11 10 9 8 7 6 6 6 6 5 5 5 5 6 7 6 6 6 6 6 6 6 5 5 4 4 3 3 2 2 2 1 1 1 2 3 3 4 4 4 4 4
12 12 11 10 9 8 7 6 7 7 6 6 5 4 5 6 6 6 6 6 6 6 6 5 5 4 4 3 3 3 2 2 3 2 1 1 1 1 2 4 4 4 4 4 4
13 12 11 10 8 7 6 6 7 7 6 5 5 5 5 6 6 6 6 6 6 6 5 5 4 3 2 2 2 2 2 2 2 2 2 1 1 2 3 4 4 4 4 4 4
14 13 11 10 8 6 5 6 6 6 5 4 4 5 6 6 6 6 6 5 5 5 5 4 3 2 1 1 1 1 2 2 2 2 2 2 2 3 4 4 3 3 4 4 4
14 13 12 10 8 6 5 6 5 4 3 3 4 5 6 6 5 5 5 5 5 5 4 4 3 2 1 0 1 1 1 1 1 1 2 2 2 3 3 3 3 3 3 4 4
12 13 12 11 8 6 6 5 4 3 2 2 3 4 5 5 4 4 4 4 4 3 3 3 2 1 1 0 0 1 1 1 1 1 2 2 2 2 3 2 2 2 3 3 4
11 11 12 11 9 7 6 5 4 2 1 1 2 3 3 3 3 3 2 2 2 2 2 2 1 0 -0 -0 0 0 0 0 0 1 1 1 1 2 2 2 1 1 2 3 4
9 9 9 9 8 6 6 5 3 1 1 1 2 2 3 3 2 2 1 1 0 1 1 1 1 0 -0 -0 -0 -0 -0 0 0 0 1 1 1 1 1 1 1 1 2 3 3
9 8 7 6 6 6 5 4 3 2 2 2 2 2 3 3 2 1 1 0 0 0 0 1 1 0 -0 -0 -0 -1 -0 -0 0 0 1 1 1 1 1 1 1 1 1 2 2
8 7 5 4 5 5 5 4 3 3 3 3 3 3 3 3 3 2 1 1 1 1 0 0 0 0 0 -0 -0 -1 -1 -1 -0 0 0 1 1 1 0 0 1 1 1 1 1
8 7 5 4 5 5 5 4 4 3 4 4 4 4 4 4 3 3 2 2 1 1 1 0 0 0 0 -0 -0 -0 -0 -0 -0 0 0 1 1 0 -0 0 1 1 1 1 1
8 7 5 5 6 5 5 5 5 5 5 5 5 5 4 4 4 3 3 2 2 1 1 0 0 0 0 0 0 0 0 0 0 0 0 1 1 0 -0 0 0 1 1 1 1
8 7 6 6 6 6 6 5 5 5 5 5 5 5 5 5 4 4 3 3 2 2 1 1 1 1 1 0 0 0 0 0 1 1 0 0 1 0 0 0 0 1 1 1 1
8 8 7 6 6 6 6 5 5 5 5 5 5 5 6 5 5 4 4 3 2 2 2 1 1 1 0 0 0 0 0 0 1 1 1 0 0 0 -0 -0 0 0 1 1 1
8 8 7 6 6 6 6 5 5 5 5 5 6 6 6 6 6 5 4 3 2 2 1 1 1 1 0 -0 -0 0 0 0 0 0 0 0 0 -0 -0 -0 -0 -0 0 1 1
8 8 7 6 6 6 5 5 6 6 6 6 7 7 7 6 6 5 4 4 3 2 2 2 1 1 0 0 0 0 0 0 0 0 0 0 0 0 0 0 0 0 0 1 1
9 9 8 6 5 5 5 5 6 6 7 7 7 7 7 7 6 5 5 4 3 3 2 2 2 1 1 1 1 0 -0 -0 -0 -0 0 0 0 0 1 1 1 1 1 1 1